Santuari del Coll - Susqueda





Hora UTC 04:40
Temperatura 9.8 ºC
Humedad 93.0 %
Presión 1017.1 hPa
Pluja 0.0 mm
Velocidad viento 3.2 km/h
Dirección viento SSE

Datos diarios 2020-09-29



Hora UTC (invierno +1h; verano +2h)
Temperatura (ºC) Humedad (%) Presión (hPa) Velocidad viento (km/h) Precipitación (mm)
Hora UTC Aire Humedad Presión Vel. Dir. Vel. Max Dir. Intent. máx 5 min.
00:00 10.4 84.0 1017.8 1.6 WNW 1.6 0.0
00:05 10.4 84.0 1017.8 3.2 NW 11.3 0.0
00:10 10.3 83.0 1017.8 0.0 W 4.8 0.0
00:15 10.3 84.0 1018.0 1.6 SSE 4.8 0.0
00:20 10.4 84.0 1017.9 1.6 E 6.4 0.0
00:25 10.4 83.0 1018.0 0.0 E 6.4 0.0
00:30 10.4 83.0 1017.9 0.0 NNE 4.8 0.0
00:35 10.4 83.0 1017.9 0.0 NNE 4.8 0.0
00:40 10.4 83.0 1017.7 0.0 N 3.2 0.0
00:45 10.6 83.0 1017.7 0.0 NW 4.8 0.0
00:50 10.4 83.0 1017.7 0.0 NNW 4.8 0.0
00:55 10.4 83.0 1017.7 3.2 ESE 4.8 0.0
01:00 10.4 83.0 1017.7 0.0 ESE 4.8 0.0
01:05 10.4 83.0 1017.7 0.0 ESE 3.2 0.0
01:10 10.3 83.0 1017.7 0.0 ESE 3.2 0.0
01:15 10.3 83.0 1017.7 0.0 ESE 4.8 0.0
01:20 10.2 83.0 1017.7 0.0 E 4.8 0.0
01:25 10.2 83.0 1017.6 0.0 SE 11.3 0.0
01:30 10.2 83.0 1017.6 0.0 E 11.3 0.0
01:35 10.2 83.0 1017.5 0.0 N 4.8 0.0
01:40 10.2 83.0 1017.5 0.0 W 4.8 0.0
01:45 10.2 83.0 1017.4 0.0 W 4.8 0.0
01:50 10.1 83.0 1017.4 1.6 SSE 4.8 0.0
01:55 10.1 83.0 1017.4 0.0 E 4.8 0.0
02:00 10.1 83.0 1017.5 0.0 ESE 4.8 0.0
02:05 10.1 83.0 1017.4 0.0 SW 4.8 0.0
02:10 10.1 83.0 1017.4 1.6 SSE 4.8 0.0
02:15 10.1 82.0 1017.5 0.0 S 4.8 0.0
02:20 9.9 82.0 1017.6 0.0 S 3.2 0.0
02:25 9.8 83.0 1017.5 1.6 S 3.2 0.0
02:30 9.9 83.0 1017.5 0.0 SSE 3.2 0.0
02:35 9.8 83.0 1017.4 1.6 NW 4.8 0.0
02:40 9.8 84.0 1017.4 8.0 SE 12.9 0.0
02:50 9.7 85.0 1017.3 1.6 SE 12.9 0.0
02:55 9.8 85.0 1017.3 4.8 ESE 12.9 0.0
03:00 9.8 85.0 1017.3 0.0 SE 12.9 0.0
03:05 9.8 86.0 1017.2 3.2 ESE 14.5 0.0
03:10 9.8 86.0 1017.2 0.0 S 14.5 0.0
03:15 9.7 86.0 1017.1 3.2 E 14.5 0.0
03:20 9.7 86.0 1017.1 0.0 ESE 14.5 0.0
03:25 9.7 87.0 1017.1 3.2 SSW 8.0 0.0
03:30 9.6 87.0 1017.0 0.0 SSW 8.0 0.0
03:35 9.6 88.0 1017.0 0.0 WSW 11.3 0.0
03:40 9.5 89.0 1017.1 3.2 W 9.7 0.0
03:45 9.5 90.0 1017.1 0.0 ESE 9.7 0.0
03:50 9.6 90.0 1017.1 0.0 ESE 9.7 0.0
03:55 9.6 91.0 1017.0 0.0 ESE 1.6 0.0
04:00 9.6 91.0 1017.0 0.0 SSW 0.0 0.0
04:05 9.6 91.0 1017.0 0.0 SE 0.0 0.0
04:10 9.7 92.0 1017.1 0.0 NW 0.0 0.0
04:15 9.7 92.0 1017.1 0.0 SW 11.3 0.0
04:20 9.8 92.0 1017.1 0.0 W 11.3 0.0
04:25 9.8 93.0 1017.0 3.2 N 4.8 0.0
04:30 9.8 93.0 1017.1 0.0 NNW 4.8 0.0
04:35 9.8 93.0 1017.1 0.0 W 6.4 0.0
04:40 9.8 93.0 1017.1 3.2 SSE 11.3 0.0
Máxima 10.8 93.0 1018.0 8.0 SE 14.5 0.0
Mínima 9.4 82.0 1017.0
Total 0.0